This demonstration page uses our WeatherBlox Daily Observations layout. Learn more.

Left ArrowRight Arrow

Hourly Observations for September 19, 2021

Temp ( °F °C ) Dew Point ( °F °C ) Humidity (%) Winds ( mph kmh ) Pressure ( in mb ) Visibility ( mi km ) Precip ( " mm )
12:53 am 00:53 Clear 72 22.2 61 16.1 68 68 S 12 19 29.97 1015 10 16 0.00 0.00
1:53 am 01:53 Clear 71 21.7 61 16.1 71 71 S 10 17 29.96 1015 10 16 0.00 0.00
2:53 am 02:53 Clear 70 21.1 61 16.1 73 73 S 9 15 29.96 1014 10 16 0.00 0.00
3:53 am 03:53 Clear 70 21.1 61 16.1 73 73 S 12 19 29.94 1014 10 16 0.00 0.00
4:53 am 04:53 Clear 68 20 61 16.1 78 78 S 10 17 29.93 1013 10 16 0.00 0.00
5:53 am 05:53 Clear 68 20 61 16.1 78 78 S 10 17 29.91 1013 10 16 0.00 0.00
6:53 am 06:53 Clear 67 19.4 61 16.1 81 81 S 8 13 29.91 1013 10 16 0.00 0.00
7:53 am 07:53 Sunny 68 20 62 16.7 81 81 S 10 17 29.91 1013 10 16 0.00 0.00
8:53 am 08:53 Sunny 70 21.1 62 16.7 76 76 S 14 22 29.89 1012 10 16 0.00 0.00
9:53 am 09:53 Sunny 76 24.4 62 16.7 62 62 S 15 24 29.87 1012 10 16 0.00 0.00
10:53 am 10:53 Sunny 79 26.1 62 16.7 56 56 S 16 26 29.86 1011 10 16 0.00 0.00
11:53 am 11:53 Sunny 82 27.8 61 16.1 49 49 S 15 24 29.83 1010 10 16 0.00 0.00
12:53 pm 12:53 Sunny 86 30 61 16.1 43 43 S 17 28 29.78 1009 10 16 0.00 0.00
1:53 pm 13:53 Sunny 89 31.7 59 15 36 36 S 24 39 29.75 1007 10 16 0.00 0.00
2:53 pm 14:53 Sunny 90 32.2 59 15 35 35 SSE 25 41 29.72 1006 10 16 0.00 0.00
3:53 pm 15:53 Sunny 91 32.8 55 12.8 30 30 S 22 35 29.69 1005 10 16 0.00 0.00
4:53 pm 16:53 Sunny 90 32.2 57 13.9 33 33 S 18 30 29.69 1005 10 16 0.00 0.00
5:53 pm 17:53 Sunny 88 31.1 59 15 38 38 S 15 24 29.68 1005 10 16 0.00 0.00
6:53 pm 18:53 Sunny 86 30 58 14.4 39 39 S 20 31 29.67 1005 10 16 0.00 0.00
7:53 pm 19:53 Clear 83 28.3 58 14.4 43 43 SSE 15 24 29.67 1005 10 16 0.00 0.00
8:53 pm 20:53 Clear 81 27.2 59 15 47 47 SSE 14 22 29.68 1005 10 16 0.00 0.00
9:53 pm 21:53 Clear 80 26.7 60 15.6 51 51 SSE 14 22 29.68 1005 10 16 0.00 0.00
10:53 pm 22:53 Clear 78 25.6 60 15.6 54 54 SSE 15 24 29.67 1005 10 16 0.00 0.00
11:53 pm 23:53 Clear 77 25 62 16.7 60 60 SSE 16 26 29.65 1004 10 16 0.00 0.00

Powered by AerisWeather